PWSweather.com
Personal Weather Stations
Station Observations
EI4HQ
Cork Harbour, CobhIE

Cork HarbourCobhIE

Lat: 51.85, Lon: -8.29

Elevation: 252

Station Type: Davis Vantage Pro2

http://www.corkharbourweather.ie

Latest ConditionsUpdated 12:24:01 PM GMT Tuesday, Jul 23, 2019
Currently Today's Max Today's Min Today's Average
Temperature 61.0°F16.1°C 63.9°F17.7°C 61.0°F16.1°C 62.7°F17.1°C
Dew Point 59.2°F15.1°C 62.1°F16.7°C 59.2°F15.1°C 60.9°F16.1°C
Winds 13.0 mph SSE20.9 kmh SSE 15.0 mph -24.1 kmh - - 11.1 mph 17.9 kmh
Wind Gusts 19.0 mph30.6 kmh 22.0 mph35.4 kmh - -
Humidity 94% 94% 94% 94%
Pressure 29.91 in1012.9 mb 30.01 in1016.3 mb 29.91 in1012.9 mb -
Hour Temp Dew Point Humidity Winds Wind Gusts Pressure Precip Precip Rate Daily Precip Total
12:24 PM 61.0°F16.1°C 59.2°F15.1°C 94% 13.0 mph SSE20.9 kmh SSE 19.0 mph30.6 kmh 29.91 in1012.9 mb 0.00 in0.0 mm 0.00 in0.0 mm 0.00 in0.0 mm
12:21 PM 61.0°F16.1°C 59.2°F15.1°C 94% 14.0 mph SSE22.5 kmh SSE 20.0 mph32.2 kmh 29.91 in1012.9 mb 0.00 in0.0 mm 0.00 in0.0 mm 0.00 in0.0 mm
12:18 PM 61.0°F16.1°C 59.2°F15.1°C 94% 13.0 mph SSE20.9 kmh SSE 20.0 mph32.2 kmh 29.91 in1012.9 mb 0.00 in0.0 mm 0.00 in0.0 mm 0.00 in0.0 mm
12:15 PM 61.0°F16.1°C 59.2°F15.1°C 94% 14.0 mph SSE22.5 kmh SSE 20.0 mph32.2 kmh 29.91 in1012.9 mb 0.00 in0.0 mm 0.00 in0.0 mm 0.00 in0.0 mm
12:12 PM 61.0°F16.1°C 59.2°F15.1°C 94% 13.0 mph SSE20.9 kmh SSE 20.0 mph32.2 kmh 29.91 in1012.9 mb 0.00 in0.0 mm 0.00 in0.0 mm 0.00 in0.0 mm
12:09 PM 61.0°F16.1°C 59.2°F15.1°C 94% 13.0 mph SSE20.9 kmh SSE 17.0 mph27.4 kmh 29.91 in1012.9 mb 0.00 in0.0 mm 0.00 in0.0 mm 0.00 in0.0 mm
12:06 PM 61.0°F16.1°C 59.2°F15.1°C 94% 13.0 mph SSE20.9 kmh SSE 17.0 mph27.4 kmh 29.91 in1012.9 mb 0.00 in0.0 mm 0.00 in0.0 mm 0.00 in0.0 mm
12:03 PM 61.0°F16.1°C 59.2°F15.1°C 94% 13.0 mph SSE20.9 kmh SSE 17.0 mph27.4 kmh 29.91 in1012.9 mb 0.00 in0.0 mm 0.00 in0.0 mm 0.00 in0.0 mm
12:00 PM 61.0°F16.1°C 59.2°F15.1°C 94% 12.0 mph SSE19.3 kmh SSE 17.0 mph27.4 kmh 29.91 in1012.9 mb 0.00 in0.0 mm 0.00 in0.0 mm 0.00 in0.0 mm
11:57 AM 61.0°F16.1°C 59.2°F15.1°C 94% 12.0 mph SSE19.3 kmh SSE 18.0 mph29.0 kmh 29.91 in1012.9 mb 0.00 in0.0 mm 0.00 in0.0 mm 0.00 in0.0 mm
11:54 AM 61.0°F16.1°C 59.2°F15.1°C 94% 13.0 mph SSE20.9 kmh SSE 19.0 mph30.6 kmh 29.92 in1013.2 mb 0.00 in0.0 mm 0.00 in0.0 mm 0.00 in0.0 mm
11:51 AM 61.0°F16.1°C 59.2°F15.1°C 94% 13.0 mph SSE20.9 kmh SSE 19.0 mph30.6 kmh 29.92 in1013.2 mb 0.00 in0.0 mm 0.00 in0.0 mm 0.00 in0.0 mm
11:48 AM 61.0°F16.1°C 59.2°F15.1°C 94% 13.0 mph SSE20.9 kmh SSE 19.0 mph30.6 kmh 29.92 in1013.2 mb 0.00 in0.0 mm 0.00 in0.0 mm 0.00 in0.0 mm
11:45 AM 61.0°F16.1°C 59.2°F15.1°C 94% 13.0 mph SSE20.9 kmh SSE 19.0 mph30.6 kmh 29.92 in1013.2 mb 0.00 in0.0 mm 0.00 in0.0 mm 0.00 in0.0 mm
11:42 AM 61.0°F16.1°C 59.2°F15.1°C 94% 13.0 mph SSE20.9 kmh SSE 16.0 mph25.7 kmh 29.92 in1013.2 mb 0.00 in0.0 mm 0.00 in0.0 mm 0.00 in0.0 mm
11:39 AM 61.0°F16.1°C 59.2°F15.1°C 94% 12.0 mph SSE19.3 kmh SSE 17.0 mph27.4 kmh 29.92 in1013.2 mb 0.00 in0.0 mm 0.00 in0.0 mm 0.00 in0.0 mm
11:36 AM 61.0°F16.1°C 59.2°F15.1°C 94% 12.0 mph SSE19.3 kmh SSE 17.0 mph27.4 kmh 29.92 in1013.2 mb 0.00 in0.0 mm 0.00 in0.0 mm 0.00 in0.0 mm
11:33 AM 61.0°F16.1°C 59.2°F15.1°C 94% 12.0 mph SSE19.3 kmh SSE 17.0 mph27.4 kmh 29.92 in1013.2 mb 0.00 in0.0 mm 0.00 in0.0 mm 0.00 in0.0 mm
11:30 AM 61.0°F16.1°C 59.2°F15.1°C 94% 12.0 mph SSE19.3 kmh SSE 16.0 mph25.7 kmh 29.92 in1013.2 mb 0.00 in0.0 mm 0.00 in0.0 mm 0.00 in0.0 mm
11:27 AM 61.0°F16.1°C 59.2°F15.1°C 94% 12.0 mph SSE19.3 kmh SSE 16.0 mph25.7 kmh 29.92 in1013.2 mb 0.00 in0.0 mm 0.00 in0.0 mm 0.00 in0.0 mm
11:24 AM 61.0°F16.1°C 59.2°F15.1°C 94% 12.0 mph SSE19.3 kmh SSE 17.0 mph27.4 kmh 29.92 in1013.2 mb 0.00 in0.0 mm 0.00 in0.0 mm 0.00 in0.0 mm
11:21 AM 61.0°F16.1°C 59.2°F15.1°C 94% 12.0 mph SSE19.3 kmh SSE 17.0 mph27.4 kmh 29.92 in1013.2 mb 0.00 in0.0 mm 0.00 in0.0 mm 0.00 in0.0 mm
11:18 AM 61.0°F16.1°C 59.2°F15.1°C 94% 12.0 mph SSE19.3 kmh SSE 17.0 mph27.4 kmh 29.92 in1013.2 mb 0.00 in0.0 mm 0.00 in0.0 mm 0.00 in0.0 mm
11:15 AM 61.0°F16.1°C 59.2°F15.1°C 94% 12.0 mph SSE19.3 kmh SSE 17.0 mph27.4 kmh 29.92 in1013.2 mb 0.00 in0.0 mm 0.00 in0.0 mm 0.00 in0.0 mm
11:12 AM 61.0°F16.1°C 59.2°F15.1°C 94% 12.0 mph SSE19.3 kmh SSE 16.0 mph25.7 kmh 29.92 in1013.2 mb 0.00 in0.0 mm 0.00 in0.0 mm 0.00 in0.0 mm
11:09 AM 61.0°F16.1°C 59.2°F15.1°C 94% 11.0 mph SSE17.7 kmh SSE 16.0 mph25.7 kmh 29.93 in1013.5 mb 0.00 in0.0 mm 0.00 in0.0 mm 0.00 in0.0 mm
11:06 AM 61.0°F16.1°C 59.2°F15.1°C 94% 12.0 mph SSE19.3 kmh SSE 16.0 mph25.7 kmh 29.93 in1013.5 mb 0.00 in0.0 mm 0.00 in0.0 mm 0.00 in0.0 mm
11:03 AM 61.0°F16.1°C 59.2°F15.1°C 94% 11.0 mph SSE17.7 kmh SSE 16.0 mph25.7 kmh 29.93 in1013.5 mb 0.00 in0.0 mm 0.00 in0.0 mm 0.00 in0.0 mm
11:00 AM 61.0°F16.1°C 59.2°F15.1°C 94% 11.0 mph SSE17.7 kmh SSE 15.0 mph24.1 kmh 29.93 in1013.5 mb 0.00 in0.0 mm 0.00 in0.0 mm 0.00 in0.0 mm
10:57 AM 61.0°F16.1°C 59.2°F15.1°C 94% 11.0 mph SSE17.7 kmh SSE 15.0 mph24.1 kmh 29.93 in1013.5 mb 0.00 in0.0 mm 0.00 in0.0 mm 0.00 in0.0 mm
10:54 AM 61.0°F16.1°C 59.2°F15.1°C 94% 11.0 mph SSE17.7 kmh SSE 15.0 mph24.1 kmh 29.93 in1013.5 mb 0.00 in0.0 mm 0.00 in0.0 mm 0.00 in0.0 mm
10:51 AM 61.0°F16.1°C 59.2°F15.1°C 94% 11.0 mph SSE17.7 kmh SSE 14.0 mph22.5 kmh 29.93 in1013.5 mb 0.00 in0.0 mm 0.00 in0.0 mm 0.00 in0.0 mm
10:48 AM 61.0°F16.1°C 59.2°F15.1°C 94% 10.0 mph SSE16.1 kmh SSE 14.0 mph22.5 kmh 29.93 in1013.5 mb 0.00 in0.0 mm 0.00 in0.0 mm 0.00 in0.0 mm
10:45 AM 61.0°F16.1°C 59.2°F15.1°C 94% 10.0 mph SSE16.1 kmh SSE 14.0 mph22.5 kmh 29.93 in1013.5 mb 0.00 in0.0 mm 0.00 in0.0 mm 0.00 in0.0 mm
10:42 AM 61.0°F16.1°C 59.2°F15.1°C 94% 10.0 mph SSE16.1 kmh SSE 14.0 mph22.5 kmh 29.93 in1013.5 mb 0.00 in0.0 mm 0.00 in0.0 mm 0.00 in0.0 mm
10:39 AM 61.0°F16.1°C 59.2°F15.1°C 94% 10.0 mph SSE16.1 kmh SSE 14.0 mph22.5 kmh 29.93 in1013.5 mb 0.00 in0.0 mm 0.00 in0.0 mm 0.00 in0.0 mm
10:36 AM 61.0°F16.1°C 59.2°F15.1°C 94% 9.0 mph SSE14.5 kmh SSE 13.0 mph20.9 kmh 29.93 in1013.5 mb 0.00 in0.0 mm 0.00 in0.0 mm 0.00 in0.0 mm
10:33 AM 61.0°F16.1°C 59.2°F15.1°C 94% 9.0 mph SSE14.5 kmh SSE 13.0 mph20.9 kmh 29.93 in1013.5 mb 0.00 in0.0 mm 0.00 in0.0 mm 0.00 in0.0 mm
10:30 AM 61.0°F16.1°C 59.2°F15.1°C 94% 9.0 mph SSE14.5 kmh SSE 12.0 mph19.3 kmh 29.93 in1013.5 mb 0.00 in0.0 mm 0.00 in0.0 mm 0.00 in0.0 mm
10:27 AM 61.0°F16.1°C 59.2°F15.1°C 94% 8.0 mph SSE12.9 kmh SSE 12.0 mph19.3 kmh 29.93 in1013.5 mb 0.00 in0.0 mm 0.00 in0.0 mm 0.00 in0.0 mm
10:24 AM 61.0°F16.1°C 59.2°F15.1°C 94% 8.0 mph SSE12.9 kmh SSE 12.0 mph19.3 kmh 29.93 in1013.5 mb 0.00 in0.0 mm 0.00 in0.0 mm 0.00 in0.0 mm
10:21 AM 61.0°F16.1°C 59.2°F15.1°C 94% 8.0 mph SSE12.9 kmh SSE 11.0 mph17.7 kmh 29.93 in1013.5 mb 0.00 in0.0 mm 0.00 in0.0 mm 0.00 in0.0 mm
10:18 AM 61.0°F16.1°C 59.2°F15.1°C 94% 8.0 mph SSE12.9 kmh SSE 11.0 mph17.7 kmh 29.93 in1013.5 mb 0.00 in0.0 mm 0.00 in0.0 mm 0.00 in0.0 mm
10:15 AM 61.0°F16.1°C 59.2°F15.1°C 94% 8.0 mph SSE12.9 kmh SSE 12.0 mph19.3 kmh 29.93 in1013.5 mb 0.00 in0.0 mm 0.00 in0.0 mm 0.00 in0.0 mm
10:12 AM 61.0°F16.1°C 59.2°F15.1°C 94% 9.0 mph SSE14.5 kmh SSE 12.0 mph19.3 kmh 29.94 in1013.9 mb 0.00 in0.0 mm 0.00 in0.0 mm 0.00 in0.0 mm
10:09 AM 61.0°F16.1°C 59.2°F15.1°C 94% 8.0 mph SSE12.9 kmh SSE 12.0 mph19.3 kmh 29.94 in1013.9 mb 0.00 in0.0 mm 0.00 in0.0 mm 0.00 in0.0 mm
10:06 AM 61.0°F16.1°C 59.2°F15.1°C 94% 8.0 mph SSE12.9 kmh SSE 12.0 mph19.3 kmh 29.94 in1013.9 mb 0.00 in0.0 mm 0.00 in0.0 mm 0.00 in0.0 mm
10:03 AM 61.0°F16.1°C 59.2°F15.1°C 94% 8.0 mph SSE12.9 kmh SSE 11.0 mph17.7 kmh 29.94 in1013.9 mb 0.00 in0.0 mm 0.00 in0.0 mm 0.00 in0.0 mm
10:00 AM 61.0°F16.1°C 59.2°F15.1°C 94% 8.0 mph SSE12.9 kmh SSE 13.0 mph20.9 kmh 29.94 in1013.9 mb 0.00 in0.0 mm 0.00 in0.0 mm 0.00 in0.0 mm
09:57 AM 61.0°F16.1°C 59.2°F15.1°C 94% 9.0 mph SSE14.5 kmh SSE 13.0 mph20.9 kmh 29.94 in1013.9 mb 0.00 in0.0 mm 0.00 in0.0 mm 0.00 in0.0 mm
09:54 AM 61.0°F16.1°C 59.2°F15.1°C 94% 9.0 mph SSE14.5 kmh SSE 13.0 mph20.9 kmh 29.94 in1013.9 mb 0.00 in0.0 mm 0.00 in0.0 mm 0.00 in0.0 mm
09:51 AM 61.0°F16.1°C 59.2°F15.1°C 94% 9.0 mph SSE14.5 kmh SSE 12.0 mph19.3 kmh 29.94 in1013.9 mb 0.00 in0.0 mm 0.00 in0.0 mm 0.00 in0.0 mm
09:48 AM 61.0°F16.1°C 59.2°F15.1°C 94% 9.0 mph SSE14.5 kmh SSE 12.0 mph19.3 kmh 29.94 in1013.9 mb 0.00 in0.0 mm 0.00 in0.0 mm 0.00 in0.0 mm
09:45 AM 61.0°F16.1°C 59.2°F15.1°C 94% 9.0 mph SSE14.5 kmh SSE 13.0 mph20.9 kmh 29.94 in1013.9 mb 0.00 in0.0 mm 0.00 in0.0 mm 0.00 in0.0 mm
09:42 AM 61.0°F16.1°C 59.2°F15.1°C 94% 10.0 mph SSE16.1 kmh SSE 13.0 mph20.9 kmh 29.94 in1013.9 mb 0.00 in0.0 mm 0.00 in0.0 mm 0.00 in0.0 mm
09:39 AM 61.0°F16.1°C 59.2°F15.1°C 94% 10.0 mph SSE16.1 kmh SSE 13.0 mph20.9 kmh 29.94 in1013.9 mb 0.00 in0.0 mm 0.00 in0.0 mm 0.00 in0.0 mm
09:36 AM 61.0°F16.1°C 59.2°F15.1°C 94% 9.0 mph S14.5 kmh S 13.0 mph20.9 kmh 29.94 in1013.9 mb 0.00 in0.0 mm 0.00 in0.0 mm 0.00 in0.0 mm
09:33 AM 61.0°F16.1°C 59.2°F15.1°C 94% 9.0 mph SSE14.5 kmh SSE 13.0 mph20.9 kmh 29.94 in1013.9 mb 0.00 in0.0 mm 0.00 in0.0 mm 0.00 in0.0 mm
09:30 AM 61.0°F16.1°C 59.2°F15.1°C 94% 9.0 mph SSE14.5 kmh SSE 13.0 mph20.9 kmh 29.94 in1013.9 mb 0.00 in0.0 mm 0.00 in0.0 mm 0.00 in0.0 mm
09:27 AM 61.0°F16.1°C 59.2°F15.1°C 94% 8.0 mph SSE12.9 kmh SSE 12.0 mph19.3 kmh 29.94 in1013.9 mb 0.00 in0.0 mm 0.00 in0.0 mm 0.00 in0.0 mm
09:24 AM 61.0°F16.1°C 59.2°F15.1°C 94% 8.0 mph SSE12.9 kmh SSE 12.0 mph19.3 kmh 29.94 in1013.9 mb 0.00 in0.0 mm 0.00 in0.0 mm 0.00 in0.0 mm
09:21 AM 61.0°F16.1°C 59.2°F15.1°C 94% 8.0 mph SSE12.9 kmh SSE 12.0 mph19.3 kmh 29.94 in1013.9 mb 0.00 in0.0 mm 0.00 in0.0 mm 0.00 in0.0 mm
09:18 AM 61.0°F16.1°C 59.2°F15.1°C 94% 8.0 mph SSE12.9 kmh SSE 12.0 mph19.3 kmh 29.94 in1013.9 mb 0.00 in0.0 mm 0.00 in0.0 mm 0.00 in0.0 mm
09:15 AM 61.0°F16.1°C 59.2°F15.1°C 94% 8.0 mph SSE12.9 kmh SSE 12.0 mph19.3 kmh 29.94 in1013.9 mb 0.00 in0.0 mm 0.00 in0.0 mm 0.00 in0.0 mm
09:12 AM 61.0°F16.1°C 59.2°F15.1°C 94% 8.0 mph SSE12.9 kmh SSE 12.0 mph19.3 kmh 29.93 in1013.5 mb 0.00 in0.0 mm 0.00 in0.0 mm 0.00 in0.0 mm
09:09 AM 61.0°F16.1°C 59.2°F15.1°C 94% 8.0 mph SSE12.9 kmh SSE 12.0 mph19.3 kmh 29.94 in1013.9 mb 0.00 in0.0 mm 0.00 in0.0 mm 0.00 in0.0 mm
09:06 AM 61.0°F16.1°C 59.2°F15.1°C 94% 8.0 mph SSE12.9 kmh SSE 12.0 mph19.3 kmh 29.94 in1013.9 mb 0.00 in0.0 mm 0.00 in0.0 mm 0.00 in0.0 mm
09:03 AM 61.0°F16.1°C 59.2°F15.1°C 94% 9.0 mph SSE14.5 kmh SSE 12.0 mph19.3 kmh 29.94 in1013.9 mb 0.00 in0.0 mm 0.00 in0.0 mm 0.00 in0.0 mm
09:00 AM 61.0°F16.1°C 59.2°F15.1°C 94% 9.0 mph SSE14.5 kmh SSE 12.0 mph19.3 kmh 29.94 in1013.9 mb 0.00 in0.0 mm 0.00 in0.0 mm 0.00 in0.0 mm
08:57 AM 61.0°F16.1°C 59.2°F15.1°C 94% 10.0 mph SSE16.1 kmh SSE 13.0 mph20.9 kmh 29.94 in1013.9 mb 0.00 in0.0 mm 0.00 in0.0 mm 0.00 in0.0 mm
08:54 AM 61.0°F16.1°C 59.2°F15.1°C 94% 10.0 mph SSE16.1 kmh SSE 13.0 mph20.9 kmh 29.94 in1013.9 mb 0.00 in0.0 mm 0.00 in0.0 mm 0.00 in0.0 mm
08:51 AM 61.0°F16.1°C 59.2°F15.1°C 94% 10.0 mph SSE16.1 kmh SSE 13.0 mph20.9 kmh 29.94 in1013.9 mb 0.00 in0.0 mm 0.00 in0.0 mm 0.00 in0.0 mm
08:48 AM 61.0°F16.1°C 59.2°F15.1°C 94% 10.0 mph SSE16.1 kmh SSE 13.0 mph20.9 kmh 29.94 in1013.9 mb 0.00 in0.0 mm 0.00 in0.0 mm 0.00 in0.0 mm
08:45 AM 61.0°F16.1°C 59.2°F15.1°C 94% 9.0 mph SSE14.5 kmh SSE 13.0 mph20.9 kmh 29.94 in1013.9 mb 0.00 in0.0 mm 0.00 in0.0 mm 0.00 in0.0 mm
08:42 AM 61.0°F16.1°C 59.2°F15.1°C 94% 9.0 mph SSE14.5 kmh SSE 13.0 mph20.9 kmh 29.94 in1013.9 mb 0.00 in0.0 mm 0.00 in0.0 mm 0.00 in0.0 mm
08:39 AM 61.0°F16.1°C 59.2°F15.1°C 94% 9.0 mph SSE14.5 kmh SSE 13.0 mph20.9 kmh 29.94 in1013.9 mb 0.00 in0.0 mm 0.00 in0.0 mm 0.00 in0.0 mm
08:36 AM 61.0°F16.1°C 59.2°F15.1°C 94% 9.0 mph SSE14.5 kmh SSE 15.0 mph24.1 kmh 29.94 in1013.9 mb 0.00 in0.0 mm 0.00 in0.0 mm 0.00 in0.0 mm
08:33 AM 61.0°F16.1°C 59.2°F15.1°C 94% 9.0 mph SSE14.5 kmh SSE 15.0 mph24.1 kmh 29.94 in1013.9 mb 0.00 in0.0 mm 0.00 in0.0 mm 0.00 in0.0 mm
08:30 AM 61.0°F16.1°C 59.2°F15.1°C 94% 9.0 mph SSE14.5 kmh SSE 15.0 mph24.1 kmh 29.94 in1013.9 mb 0.00 in0.0 mm 0.00 in0.0 mm 0.00 in0.0 mm
08:27 AM 61.0°F16.1°C 59.2°F15.1°C 94% 9.0 mph SSE14.5 kmh SSE 14.0 mph22.5 kmh 29.94 in1013.9 mb 0.00 in0.0 mm 0.00 in0.0 mm 0.00 in0.0 mm
08:24 AM 61.0°F16.1°C 59.2°F15.1°C 94% 10.0 mph S16.1 kmh S 14.0 mph22.5 kmh 29.94 in1013.9 mb 0.00 in0.0 mm 0.00 in0.0 mm 0.00 in0.0 mm
08:21 AM 61.0°F16.1°C 59.2°F15.1°C 94% 10.0 mph S16.1 kmh S 15.0 mph24.1 kmh 29.95 in1014.2 mb 0.00 in0.0 mm 0.00 in0.0 mm 0.00 in0.0 mm
08:18 AM 61.0°F16.1°C 59.2°F15.1°C 94% 10.0 mph S16.1 kmh S 15.0 mph24.1 kmh 29.94 in1013.9 mb 0.00 in0.0 mm 0.00 in0.0 mm 0.00 in0.0 mm
08:15 AM 61.0°F16.1°C 59.2°F15.1°C 94% 10.0 mph S16.1 kmh S 15.0 mph24.1 kmh 29.95 in1014.2 mb 0.00 in0.0 mm 0.00 in0.0 mm 0.00 in0.0 mm
08:12 AM 61.0°F16.1°C 59.2°F15.1°C 94% 10.0 mph S16.1 kmh S 15.0 mph24.1 kmh 29.94 in1013.9 mb 0.00 in0.0 mm 0.00 in0.0 mm 0.00 in0.0 mm
08:09 AM 61.0°F16.1°C 59.2°F15.1°C 94% 11.0 mph S17.7 kmh S 15.0 mph24.1 kmh 29.94 in1013.9 mb 0.00 in0.0 mm 0.00 in0.0 mm 0.00 in0.0 mm
08:06 AM 61.0°F16.1°C 59.2°F15.1°C 94% 11.0 mph S17.7 kmh S 16.0 mph25.7 kmh 29.95 in1014.2 mb 0.00 in0.0 mm 0.00 in0.0 mm 0.00 in0.0 mm
08:03 AM 61.0°F16.1°C 59.2°F15.1°C 94% 11.0 mph S17.7 kmh S 16.0 mph25.7 kmh 29.95 in1014.2 mb 0.00 in0.0 mm 0.00 in0.0 mm 0.00 in0.0 mm
08:00 AM 61.0°F16.1°C 59.2°F15.1°C 94% 11.0 mph S17.7 kmh S 16.0 mph25.7 kmh 29.95 in1014.2 mb 0.00 in0.0 mm 0.00 in0.0 mm 0.00 in0.0 mm
07:57 AM 61.0°F16.1°C 59.2°F15.1°C 94% 11.0 mph S17.7 kmh S 16.0 mph25.7 kmh 29.95 in1014.2 mb 0.00 in0.0 mm 0.00 in0.0 mm 0.00 in0.0 mm
07:54 AM 61.0°F16.1°C 59.2°F15.1°C 94% 11.0 mph S17.7 kmh S 15.0 mph24.1 kmh 29.95 in1014.2 mb 0.00 in0.0 mm 0.00 in0.0 mm 0.00 in0.0 mm
07:51 AM 61.0°F16.1°C 59.2°F15.1°C 94% 11.0 mph S17.7 kmh S 15.0 mph24.1 kmh 29.94 in1013.9 mb 0.00 in0.0 mm 0.00 in0.0 mm 0.00 in0.0 mm
07:48 AM 61.0°F16.1°C 59.2°F15.1°C 94% 11.0 mph S17.7 kmh S 15.0 mph24.1 kmh 29.94 in1013.9 mb 0.00 in0.0 mm 0.00 in0.0 mm 0.00 in0.0 mm
07:45 AM 61.0°F16.1°C 59.2°F15.1°C 94% 11.0 mph S17.7 kmh S 15.0 mph24.1 kmh 29.94 in1013.9 mb 0.00 in0.0 mm 0.00 in0.0 mm 0.00 in0.0 mm
07:42 AM 61.0°F16.1°C 59.2°F15.1°C 94% 10.0 mph SSE16.1 kmh SSE 15.0 mph24.1 kmh 29.94 in1013.9 mb 0.00 in0.0 mm 0.00 in0.0 mm 0.00 in0.0 mm
07:39 AM 61.0°F16.1°C 59.2°F15.1°C 94% 10.0 mph SSE16.1 kmh SSE 15.0 mph24.1 kmh 29.94 in1013.9 mb 0.00 in0.0 mm 0.00 in0.0 mm 0.00 in0.0 mm
07:36 AM 61.0°F16.1°C 59.2°F15.1°C 94% 9.0 mph SSE14.5 kmh SSE 13.0 mph20.9 kmh 29.94 in1013.9 mb 0.00 in0.0 mm 0.00 in0.0 mm 0.00 in0.0 mm
07:33 AM 61.0°F16.1°C 59.2°F15.1°C 94% 10.0 mph SSE16.1 kmh SSE 15.0 mph24.1 kmh 29.94 in1013.9 mb 0.00 in0.0 mm 0.00 in0.0 mm 0.00 in0.0 mm
07:30 AM 61.0°F16.1°C 59.2°F15.1°C 94% 11.0 mph SSE17.7 kmh SSE 15.0 mph24.1 kmh 29.94 in1013.9 mb 0.00 in0.0 mm 0.00 in0.0 mm 0.00 in0.0 mm
07:27 AM 63.9°F17.7°C 62.1°F16.7°C 94% 11.0 mph SSE17.7 kmh SSE 15.0 mph24.1 kmh 29.94 in1013.9 mb 0.00 in0.0 mm 0.00 in0.0 mm 0.00 in0.0 mm
07:24 AM 63.9°F17.7°C 62.1°F16.7°C 94% 10.0 mph SSE16.1 kmh SSE 15.0 mph24.1 kmh 29.94 in1013.9 mb 0.00 in0.0 mm 0.00 in0.0 mm 0.00 in0.0 mm
07:21 AM 63.9°F17.7°C 62.1°F16.7°C 94% 9.0 mph SSE14.5 kmh SSE 13.0 mph20.9 kmh 29.94 in1013.9 mb 0.00 in0.0 mm 0.00 in0.0 mm 0.00 in0.0 mm
07:18 AM 63.9°F17.7°C 62.1°F16.7°C 94% 10.0 mph SSE16.1 kmh SSE 15.0 mph24.1 kmh 29.94 in1013.9 mb 0.00 in0.0 mm 0.00 in0.0 mm 0.00 in0.0 mm
07:15 AM 63.9°F17.7°C 62.1°F16.7°C 94% 11.0 mph SSE17.7 kmh SSE 16.0 mph25.7 kmh 29.94 in1013.9 mb 0.00 in0.0 mm 0.00 in0.0 mm 0.00 in0.0 mm
07:12 AM 63.9°F17.7°C 62.1°F16.7°C 94% 12.0 mph SSE19.3 kmh SSE 16.0 mph25.7 kmh 29.94 in1013.9 mb 0.00 in0.0 mm 0.00 in0.0 mm 0.00 in0.0 mm
07:09 AM 63.9°F17.7°C 62.1°F16.7°C 94% 12.0 mph S19.3 kmh S 17.0 mph27.4 kmh 29.94 in1013.9 mb 0.00 in0.0 mm 0.00 in0.0 mm 0.00 in0.0 mm
07:06 AM 63.9°F17.7°C 62.1°F16.7°C 94% 12.0 mph S19.3 kmh S 17.0 mph27.4 kmh 29.94 in1013.9 mb 0.00 in0.0 mm 0.00 in0.0 mm 0.00 in0.0 mm
07:03 AM 63.9°F17.7°C 62.1°F16.7°C 94% 12.0 mph S19.3 kmh S 17.0 mph27.4 kmh 29.95 in1014.2 mb 0.00 in0.0 mm 0.00 in0.0 mm 0.00 in0.0 mm
07:00 AM 63.9°F17.7°C 62.1°F16.7°C 94% 11.0 mph S17.7 kmh S 16.0 mph25.7 kmh 29.95 in1014.2 mb 0.00 in0.0 mm 0.00 in0.0 mm 0.00 in0.0 mm
06:57 AM 63.9°F17.7°C 62.1°F16.7°C 94% 11.0 mph S17.7 kmh S 16.0 mph25.7 kmh 29.95 in1014.2 mb 0.00 in0.0 mm 0.00 in0.0 mm 0.00 in0.0 mm
06:54 AM 63.9°F17.7°C 62.1°F16.7°C 94% 10.0 mph S16.1 kmh S 16.0 mph25.7 kmh 29.95 in1014.2 mb 0.00 in0.0 mm 0.00 in0.0 mm 0.00 in0.0 mm
06:51 AM 63.9°F17.7°C 62.1°F16.7°C 94% 10.0 mph S16.1 kmh S 16.0 mph25.7 kmh 29.95 in1014.2 mb 0.00 in0.0 mm 0.00 in0.0 mm 0.00 in0.0 mm
06:48 AM 63.9°F17.7°C 62.1°F16.7°C 94% 11.0 mph S17.7 kmh S 16.0 mph25.7 kmh 29.95 in1014.2 mb 0.00 in0.0 mm 0.00 in0.0 mm 0.00 in0.0 mm
06:45 AM 63.9°F17.7°C 62.1°F16.7°C 94% 11.0 mph SSE17.7 kmh SSE 16.0 mph25.7 kmh 29.95 in1014.2 mb 0.00 in0.0 mm 0.00 in0.0 mm 0.00 in0.0 mm
06:42 AM 63.9°F17.7°C 62.1°F16.7°C 94% 10.0 mph SSE16.1 kmh SSE 16.0 mph25.7 kmh 29.95 in1014.2 mb 0.00 in0.0 mm 0.00 in0.0 mm 0.00 in0.0 mm
06:39 AM 63.9°F17.7°C 62.1°F16.7°C 94% 10.0 mph SSE16.1 kmh SSE 16.0 mph25.7 kmh 29.95 in1014.2 mb 0.00 in0.0 mm 0.00 in0.0 mm 0.00 in0.0 mm
06:36 AM 63.9°F17.7°C 62.1°F16.7°C 94% 10.0 mph SSE16.1 kmh SSE 16.0 mph25.7 kmh 29.95 in1014.2 mb 0.00 in0.0 mm 0.00 in0.0 mm 0.00 in0.0 mm
06:33 AM 63.9°F17.7°C 62.1°F16.7°C 94% 10.0 mph SSE16.1 kmh SSE 16.0 mph25.7 kmh 29.95 in1014.2 mb 0.00 in0.0 mm 0.00 in0.0 mm 0.00 in0.0 mm
06:30 AM 63.9°F17.7°C 62.1°F16.7°C 94% 11.0 mph SSE17.7 kmh SSE 16.0 mph25.7 kmh 29.95 in1014.2 mb 0.00 in0.0 mm 0.00 in0.0 mm 0.00 in0.0 mm
06:27 AM 63.9°F17.7°C 62.1°F16.7°C 94% 11.0 mph SSE17.7 kmh SSE 13.0 mph20.9 kmh 29.95 in1014.2 mb 0.00 in0.0 mm 0.00 in0.0 mm 0.00 in0.0 mm
06:24 AM 63.9°F17.7°C 62.1°F16.7°C 94% 11.0 mph SSE17.7 kmh SSE 15.0 mph24.1 kmh 29.95 in1014.2 mb 0.00 in0.0 mm 0.00 in0.0 mm 0.00 in0.0 mm
06:21 AM 63.9°F17.7°C 62.1°F16.7°C 94% 11.0 mph SSE17.7 kmh SSE 16.0 mph25.7 kmh 29.95 in1014.2 mb 0.00 in0.0 mm 0.00 in0.0 mm 0.00 in0.0 mm
06:18 AM 63.9°F17.7°C 62.1°F16.7°C 94% 11.0 mph SSE17.7 kmh SSE 16.0 mph25.7 kmh 29.95 in1014.2 mb 0.00 in0.0 mm 0.00 in0.0 mm 0.00 in0.0 mm
06:15 AM 63.9°F17.7°C 62.1°F16.7°C 94% 11.0 mph SSE17.7 kmh SSE 16.0 mph25.7 kmh 29.95 in1014.2 mb 0.00 in0.0 mm 0.00 in0.0 mm 0.00 in0.0 mm
06:12 AM 63.9°F17.7°C 62.1°F16.7°C 94% 11.0 mph SSE17.7 kmh SSE 16.0 mph25.7 kmh 29.95 in1014.2 mb 0.00 in0.0 mm 0.00 in0.0 mm 0.00 in0.0 mm
06:09 AM 63.9°F17.7°C 62.1°F16.7°C 94% 12.0 mph SSE19.3 kmh SSE 16.0 mph25.7 kmh 29.95 in1014.2 mb 0.00 in0.0 mm 0.00 in0.0 mm 0.00 in0.0 mm
06:06 AM 63.9°F17.7°C 62.1°F16.7°C 94% 12.0 mph SSE19.3 kmh SSE 16.0 mph25.7 kmh 29.95 in1014.2 mb 0.00 in0.0 mm 0.00 in0.0 mm 0.00 in0.0 mm
06:03 AM 63.9°F17.7°C 62.1°F16.7°C 94% 11.0 mph SSE17.7 kmh SSE 16.0 mph25.7 kmh 29.95 in1014.2 mb 0.00 in0.0 mm 0.00 in0.0 mm 0.00 in0.0 mm
06:00 AM 63.9°F17.7°C 62.1°F16.7°C 94% 11.0 mph SSE17.7 kmh SSE 16.0 mph25.7 kmh 29.95 in1014.2 mb 0.00 in0.0 mm 0.00 in0.0 mm 0.00 in0.0 mm
05:57 AM 63.9°F17.7°C 62.1°F16.7°C 94% 11.0 mph SSE17.7 kmh SSE 16.0 mph25.7 kmh 29.95 in1014.2 mb 0.00 in0.0 mm 0.00 in0.0 mm 0.00 in0.0 mm
05:54 AM 63.9°F17.7°C 62.1°F16.7°C 94% 11.0 mph SSE17.7 kmh SSE 16.0 mph25.7 kmh 29.95 in1014.2 mb 0.00 in0.0 mm 0.00 in0.0 mm 0.00 in0.0 mm
05:51 AM 63.9°F17.7°C 62.1°F16.7°C 94% 11.0 mph SSE17.7 kmh SSE 16.0 mph25.7 kmh 29.95 in1014.2 mb 0.00 in0.0 mm 0.00 in0.0 mm 0.00 in0.0 mm
05:48 AM 63.9°F17.7°C 62.1°F16.7°C 94% 11.0 mph SSE17.7 kmh SSE 16.0 mph25.7 kmh 29.95 in1014.2 mb 0.00 in0.0 mm 0.00 in0.0 mm 0.00 in0.0 mm
05:45 AM 63.9°F17.7°C 62.1°F16.7°C 94% 11.0 mph SSE17.7 kmh SSE 15.0 mph24.1 kmh 29.95 in1014.2 mb 0.00 in0.0 mm 0.00 in0.0 mm 0.00 in0.0 mm
05:42 AM 63.9°F17.7°C 62.1°F16.7°C 94% 11.0 mph SSE17.7 kmh SSE 17.0 mph27.4 kmh 29.95 in1014.2 mb 0.00 in0.0 mm 0.00 in0.0 mm 0.00 in0.0 mm
05:39 AM 63.9°F17.7°C 62.1°F16.7°C 94% 11.0 mph SSE17.7 kmh SSE 17.0 mph27.4 kmh 29.95 in1014.2 mb 0.00 in0.0 mm 0.00 in0.0 mm 0.00 in0.0 mm
05:36 AM 63.9°F17.7°C 62.1°F16.7°C 94% 10.0 mph SSE16.1 kmh SSE 17.0 mph27.4 kmh 29.95 in1014.2 mb 0.00 in0.0 mm 0.00 in0.0 mm 0.00 in0.0 mm
05:33 AM 63.9°F17.7°C 62.1°F16.7°C 94% 10.0 mph SSE16.1 kmh SSE 15.0 mph24.1 kmh 29.95 in1014.2 mb 0.00 in0.0 mm 0.00 in0.0 mm 0.00 in0.0 mm
05:30 AM 63.9°F17.7°C 62.1°F16.7°C 94% 10.0 mph SSE16.1 kmh SSE 14.0 mph22.5 kmh 29.96 in1014.6 mb 0.00 in0.0 mm 0.00 in0.0 mm 0.00 in0.0 mm
05:27 AM 63.9°F17.7°C 62.1°F16.7°C 94% 10.0 mph SSE16.1 kmh SSE 14.0 mph22.5 kmh 29.96 in1014.6 mb 0.00 in0.0 mm 0.00 in0.0 mm 0.00 in0.0 mm
05:24 AM 63.9°F17.7°C 62.1°F16.7°C 94% 10.0 mph SSE16.1 kmh SSE 14.0 mph22.5 kmh 29.95 in1014.2 mb 0.00 in0.0 mm 0.00 in0.0 mm 0.00 in0.0 mm
05:21 AM 63.9°F17.7°C 62.1°F16.7°C 94% 9.0 mph SSE14.5 kmh SSE 12.0 mph19.3 kmh 29.96 in1014.6 mb 0.00 in0.0 mm 0.00 in0.0 mm 0.00 in0.0 mm
05:18 AM 63.9°F17.7°C 62.1°F16.7°C 94% 9.0 mph SSE14.5 kmh SSE 12.0 mph19.3 kmh 29.96 in1014.6 mb 0.00 in0.0 mm 0.00 in0.0 mm 0.00 in0.0 mm
05:15 AM 63.9°F17.7°C 62.1°F16.7°C 94% 9.0 mph SSE14.5 kmh SSE 12.0 mph19.3 kmh 29.95 in1014.2 mb 0.00 in0.0 mm 0.00 in0.0 mm 0.00 in0.0 mm
05:12 AM 63.9°F17.7°C 62.1°F16.7°C 94% 9.0 mph SSE14.5 kmh SSE 12.0 mph19.3 kmh 29.96 in1014.6 mb 0.00 in0.0 mm 0.00 in0.0 mm 0.00 in0.0 mm
05:09 AM 63.9°F17.7°C 62.1°F16.7°C 94% 9.0 mph SSE14.5 kmh SSE 12.0 mph19.3 kmh 29.96 in1014.6 mb 0.00 in0.0 mm 0.00 in0.0 mm 0.00 in0.0 mm
05:06 AM 63.9°F17.7°C 62.1°F16.7°C 94% 9.0 mph SSE14.5 kmh SSE 12.0 mph19.3 kmh 29.96 in1014.6 mb 0.00 in0.0 mm 0.00 in0.0 mm 0.00 in0.0 mm
05:03 AM 63.9°F17.7°C 62.1°F16.7°C 94% 9.0 mph SSE14.5 kmh SSE 11.0 mph17.7 kmh 29.96 in1014.6 mb 0.00 in0.0 mm 0.00 in0.0 mm 0.00 in0.0 mm
05:00 AM 63.9°F17.7°C 62.1°F16.7°C 94% 10.0 mph SSE16.1 kmh SSE 15.0 mph24.1 kmh 29.96 in1014.6 mb 0.00 in0.0 mm 0.00 in0.0 mm 0.00 in0.0 mm
04:57 AM 63.9°F17.7°C 62.1°F16.7°C 94% 10.0 mph S16.1 kmh S 17.0 mph27.4 kmh 29.96 in1014.6 mb 0.00 in0.0 mm 0.00 in0.0 mm 0.00 in0.0 mm
04:54 AM 63.9°F17.7°C 62.1°F16.7°C 94% 12.0 mph S19.3 kmh S 20.0 mph32.2 kmh 29.96 in1014.6 mb 0.00 in0.0 mm 0.00 in0.0 mm 0.00 in0.0 mm
04:51 AM 63.9°F17.7°C 62.1°F16.7°C 94% 12.0 mph S19.3 kmh S 20.0 mph32.2 kmh 29.96 in1014.6 mb 0.00 in0.0 mm 0.00 in0.0 mm 0.00 in0.0 mm
04:48 AM 63.9°F17.7°C 62.1°F16.7°C 94% 12.0 mph S19.3 kmh S 20.0 mph32.2 kmh 29.96 in1014.6 mb 0.00 in0.0 mm 0.00 in0.0 mm 0.00 in0.0 mm
04:45 AM 63.9°F17.7°C 62.1°F16.7°C 94% 13.0 mph S20.9 kmh S 19.0 mph30.6 kmh 29.96 in1014.6 mb 0.00 in0.0 mm 0.00 in0.0 mm 0.00 in0.0 mm
04:42 AM 63.9°F17.7°C 62.1°F16.7°C 94% 13.0 mph S20.9 kmh S 19.0 mph30.6 kmh 29.96 in1014.6 mb 0.00 in0.0 mm 0.00 in0.0 mm 0.00 in0.0 mm
04:39 AM 63.9°F17.7°C 62.1°F16.7°C 94% 12.0 mph S19.3 kmh S 17.0 mph27.4 kmh 29.96 in1014.6 mb 0.00 in0.0 mm 0.00 in0.0 mm 0.00 in0.0 mm
04:36 AM 63.9°F17.7°C 62.1°F16.7°C 94% 11.0 mph S17.7 kmh S 17.0 mph27.4 kmh 29.96 in1014.6 mb 0.00 in0.0 mm 0.00 in0.0 mm 0.00 in0.0 mm
04:33 AM 63.9°F17.7°C 62.1°F16.7°C 94% 10.0 mph S16.1 kmh S 15.0 mph24.1 kmh 29.96 in1014.6 mb 0.00 in0.0 mm 0.00 in0.0 mm 0.00 in0.0 mm
04:30 AM 63.9°F17.7°C 62.1°F16.7°C 94% 10.0 mph S16.1 kmh S 16.0 mph25.7 kmh 29.96 in1014.6 mb 0.00 in0.0 mm 0.00 in0.0 mm 0.00 in0.0 mm
04:27 AM 63.9°F17.7°C 62.1°F16.7°C 94% 11.0 mph S17.7 kmh S 16.0 mph25.7 kmh 29.96 in1014.6 mb 0.00 in0.0 mm 0.00 in0.0 mm 0.00 in0.0 mm
04:24 AM 63.9°F17.7°C 62.1°F16.7°C 94% 11.0 mph S17.7 kmh S 16.0 mph25.7 kmh 29.96 in1014.6 mb 0.00 in0.0 mm 0.00 in0.0 mm 0.00 in0.0 mm
04:21 AM 63.9°F17.7°C 62.1°F16.7°C 94% 11.0 mph S17.7 kmh S 16.0 mph25.7 kmh 29.96 in1014.6 mb 0.00 in0.0 mm 0.00 in0.0 mm 0.00 in0.0 mm
04:18 AM 63.9°F17.7°C 62.1°F16.7°C 94% 11.0 mph S17.7 kmh S 16.0 mph25.7 kmh 29.96 in1014.6 mb 0.00 in0.0 mm 0.00 in0.0 mm 0.00 in0.0 mm
04:15 AM 63.9°F17.7°C 62.1°F16.7°C 94% 11.0 mph S17.7 kmh S 14.0 mph22.5 kmh 29.96 in1014.6 mb 0.00 in0.0 mm 0.00 in0.0 mm 0.00 in0.0 mm
04:12 AM 63.9°F17.7°C 62.1°F16.7°C 94% 11.0 mph S17.7 kmh S 20.0 mph32.2 kmh 29.97 in1014.9 mb 0.00 in0.0 mm 0.00 in0.0 mm 0.00 in0.0 mm
04:09 AM 63.9°F17.7°C 62.1°F16.7°C 94% 12.0 mph S19.3 kmh S 20.0 mph32.2 kmh 29.96 in1014.6 mb 0.00 in0.0 mm 0.00 in0.0 mm 0.00 in0.0 mm
04:06 AM 63.9°F17.7°C 62.1°F16.7°C 94% 13.0 mph S20.9 kmh S 20.0 mph32.2 kmh 29.97 in1014.9 mb 0.00 in0.0 mm 0.00 in0.0 mm 0.00 in0.0 mm
04:03 AM 63.9°F17.7°C 62.1°F16.7°C 94% 13.0 mph S20.9 kmh S 19.0 mph30.6 kmh 29.96 in1014.6 mb 0.00 in0.0 mm 0.00 in0.0 mm 0.00 in0.0 mm
04:00 AM 63.9°F17.7°C 62.1°F16.7°C 94% 13.0 mph S20.9 kmh S 19.0 mph30.6 kmh 29.96 in1014.6 mb 0.00 in0.0 mm 0.00 in0.0 mm 0.00 in0.0 mm
03:57 AM 63.9°F17.7°C 62.1°F16.7°C 94% 13.0 mph S20.9 kmh S 19.0 mph30.6 kmh 29.96 in1014.6 mb 0.00 in0.0 mm 0.00 in0.0 mm 0.00 in0.0 mm
03:54 AM 63.9°F17.7°C 62.1°F16.7°C 94% 14.0 mph S22.5 kmh S 21.0 mph33.8 kmh 29.96 in1014.6 mb 0.00 in0.0 mm 0.00 in0.0 mm 0.00 in0.0 mm
03:51 AM 63.9°F17.7°C 62.1°F16.7°C 94% 13.0 mph S20.9 kmh S 21.0 mph33.8 kmh 29.96 in1014.6 mb 0.00 in0.0 mm 0.00 in0.0 mm 0.00 in0.0 mm
03:48 AM 63.9°F17.7°C 62.1°F16.7°C 94% 13.0 mph S20.9 kmh S 21.0 mph33.8 kmh 29.97 in1014.9 mb 0.00 in0.0 mm 0.00 in0.0 mm 0.00 in0.0 mm
03:45 AM 63.9°F17.7°C 62.1°F16.7°C 94% 12.0 mph S19.3 kmh S 19.0 mph30.6 kmh 29.96 in1014.6 mb 0.00 in0.0 mm 0.00 in0.0 mm 0.00 in0.0 mm
03:42 AM 63.9°F17.7°C 62.1°F16.7°C 94% 13.0 mph S20.9 kmh S 19.0 mph30.6 kmh 29.97 in1014.9 mb 0.00 in0.0 mm 0.00 in0.0 mm 0.00 in0.0 mm
03:39 AM 63.9°F17.7°C 62.1°F16.7°C 94% 12.0 mph S19.3 kmh S 18.0 mph29.0 kmh 29.97 in1014.9 mb 0.00 in0.0 mm 0.00 in0.0 mm 0.00 in0.0 mm
03:36 AM 63.9°F17.7°C 62.1°F16.7°C 94% 13.0 mph S20.9 kmh S 18.0 mph29.0 kmh 29.97 in1014.9 mb 0.00 in0.0 mm 0.00 in0.0 mm 0.00 in0.0 mm
03:33 AM 63.9°F17.7°C 62.1°F16.7°C 94% 12.0 mph S19.3 kmh S 17.0 mph27.4 kmh 29.97 in1014.9 mb 0.00 in0.0 mm 0.00 in0.0 mm 0.00 in0.0 mm
03:30 AM 63.9°F17.7°C 62.1°F16.7°C 94% 11.0 mph S17.7 kmh S 16.0 mph25.7 kmh 29.97 in1014.9 mb 0.00 in0.0 mm 0.00 in0.0 mm 0.00 in0.0 mm
03:27 AM 63.9°F17.7°C 62.1°F16.7°C 94% 12.0 mph S19.3 kmh S 17.0 mph27.4 kmh 29.97 in1014.9 mb 0.00 in0.0 mm 0.00 in0.0 mm 0.00 in0.0 mm
03:24 AM 63.9°F17.7°C 62.1°F16.7°C 94% 12.0 mph SSE19.3 kmh SSE 17.0 mph27.4 kmh 29.97 in1014.9 mb 0.00 in0.0 mm 0.00 in0.0 mm 0.00 in0.0 mm
03:21 AM 63.9°F17.7°C 62.1°F16.7°C 94% 12.0 mph SSE19.3 kmh SSE 17.0 mph27.4 kmh 29.97 in1014.9 mb 0.00 in0.0 mm 0.00 in0.0 mm 0.00 in0.0 mm
03:18 AM 63.9°F17.7°C 62.1°F16.7°C 94% 12.0 mph SSE19.3 kmh SSE 17.0 mph27.4 kmh 29.97 in1014.9 mb 0.00 in0.0 mm 0.00 in0.0 mm 0.00 in0.0 mm
03:15 AM 63.9°F17.7°C 62.1°F16.7°C 94% 12.0 mph SSE19.3 kmh SSE 16.0 mph25.7 kmh 29.97 in1014.9 mb 0.00 in0.0 mm 0.00 in0.0 mm 0.00 in0.0 mm
03:12 AM 63.9°F17.7°C 62.1°F16.7°C 94% 12.0 mph SSE19.3 kmh SSE 16.0 mph25.7 kmh 29.98 in1015.2 mb 0.00 in0.0 mm 0.00 in0.0 mm 0.00 in0.0 mm
03:09 AM 63.9°F17.7°C 62.1°F16.7°C 94% 12.0 mph SSE19.3 kmh SSE 15.0 mph24.1 kmh 29.98 in1015.2 mb 0.00 in0.0 mm 0.00 in0.0 mm 0.00 in0.0 mm
03:06 AM 63.9°F17.7°C 62.1°F16.7°C 94% 12.0 mph SSE19.3 kmh SSE 15.0 mph24.1 kmh 29.97 in1014.9 mb 0.00 in0.0 mm 0.00 in0.0 mm 0.00 in0.0 mm
03:03 AM 63.9°F17.7°C 62.1°F16.7°C 94% 12.0 mph S19.3 kmh S 15.0 mph24.1 kmh 29.97 in1014.9 mb 0.00 in0.0 mm 0.00 in0.0 mm 0.00 in0.0 mm
03:00 AM 63.9°F17.7°C 62.1°F16.7°C 94% 11.0 mph S17.7 kmh S 15.0 mph24.1 kmh 29.97 in1014.9 mb 0.00 in0.0 mm 0.00 in0.0 mm 0.00 in0.0 mm
02:57 AM 63.9°F17.7°C 62.1°F16.7°C 94% 11.0 mph S17.7 kmh S 15.0 mph24.1 kmh 29.97 in1014.9 mb 0.00 in0.0 mm 0.00 in0.0 mm 0.00 in0.0 mm
02:54 AM 63.9°F17.7°C 62.1°F16.7°C 94% 11.0 mph S17.7 kmh S 15.0 mph24.1 kmh 29.98 in1015.2 mb 0.00 in0.0 mm 0.00 in0.0 mm 0.00 in0.0 mm
02:51 AM 63.9°F17.7°C 62.1°F16.7°C 94% 11.0 mph S17.7 kmh S 16.0 mph25.7 kmh 29.98 in1015.2 mb 0.00 in0.0 mm 0.00 in0.0 mm 0.00 in0.0 mm
02:48 AM 63.9°F17.7°C 62.1°F16.7°C 94% 12.0 mph S19.3 kmh S 18.0 mph29.0 kmh 29.98 in1015.2 mb 0.00 in0.0 mm 0.00 in0.0 mm 0.00 in0.0 mm
02:45 AM 63.9°F17.7°C 62.1°F16.7°C 94% 14.0 mph S22.5 kmh S 21.0 mph33.8 kmh 29.98 in1015.2 mb 0.00 in0.0 mm 0.00 in0.0 mm 0.00 in0.0 mm
02:42 AM 63.9°F17.7°C 62.1°F16.7°C 94% 15.0 mph S24.1 kmh S 22.0 mph35.4 kmh 29.98 in1015.2 mb 0.00 in0.0 mm 0.00 in0.0 mm 0.00 in0.0 mm
02:39 AM 63.9°F17.7°C 62.1°F16.7°C 94% 14.0 mph S22.5 kmh S 22.0 mph35.4 kmh 29.98 in1015.2 mb 0.00 in0.0 mm 0.00 in0.0 mm 0.00 in0.0 mm
02:36 AM 63.9°F17.7°C 62.1°F16.7°C 94% 14.0 mph S22.5 kmh S 22.0 mph35.4 kmh 29.98 in1015.2 mb 0.00 in0.0 mm 0.00 in0.0 mm 0.00 in0.0 mm
02:33 AM 63.9°F17.7°C 62.1°F16.7°C 94% 13.0 mph S20.9 kmh S 19.0 mph30.6 kmh 29.98 in1015.2 mb 0.00 in0.0 mm 0.00 in0.0 mm 0.00 in0.0 mm
02:30 AM 63.9°F17.7°C 62.1°F16.7°C 94% 13.0 mph S20.9 kmh S 19.0 mph30.6 kmh 29.98 in1015.2 mb 0.00 in0.0 mm 0.00 in0.0 mm 0.00 in0.0 mm
02:27 AM 63.9°F17.7°C 62.1°F16.7°C 94% 13.0 mph SSE20.9 kmh SSE 19.0 mph30.6 kmh 29.98 in1015.2 mb 0.00 in0.0 mm 0.00 in0.0 mm 0.00 in0.0 mm
02:24 AM 63.9°F17.7°C 62.1°F16.7°C 94% 13.0 mph S20.9 kmh S 19.0 mph30.6 kmh 29.98 in1015.2 mb 0.00 in0.0 mm 0.00 in0.0 mm 0.00 in0.0 mm
02:21 AM 63.9°F17.7°C 62.1°F16.7°C 94% 13.0 mph S20.9 kmh S 17.0 mph27.4 kmh 29.98 in1015.2 mb 0.00 in0.0 mm 0.00 in0.0 mm 0.00 in0.0 mm
02:18 AM 63.9°F17.7°C 62.1°F16.7°C 94% 12.0 mph SSE19.3 kmh SSE 16.0 mph25.7 kmh 29.98 in1015.2 mb 0.00 in0.0 mm 0.00 in0.0 mm 0.00 in0.0 mm
02:15 AM 63.9°F17.7°C 62.1°F16.7°C 94% 12.0 mph SSE19.3 kmh SSE 16.0 mph25.7 kmh 29.98 in1015.2 mb 0.00 in0.0 mm 0.00 in0.0 mm 0.00 in0.0 mm
02:12 AM 63.9°F17.7°C 62.1°F16.7°C 94% 12.0 mph S19.3 kmh S 18.0 mph29.0 kmh 29.98 in1015.2 mb 0.00 in0.0 mm 0.00 in0.0 mm 0.00 in0.0 mm
02:09 AM 63.9°F17.7°C 62.1°F16.7°C 94% 12.0 mph S19.3 kmh S 18.0 mph29.0 kmh 29.98 in1015.2 mb 0.00 in0.0 mm 0.00 in0.0 mm 0.00 in0.0 mm
02:06 AM 63.9°F17.7°C 62.1°F16.7°C 94% 11.0 mph S17.7 kmh S 18.0 mph29.0 kmh 29.98 in1015.2 mb 0.00 in0.0 mm 0.00 in0.0 mm 0.00 in0.0 mm
02:03 AM 63.9°F17.7°C 62.1°F16.7°C 94% 10.0 mph SSE16.1 kmh SSE 15.0 mph24.1 kmh 29.98 in1015.2 mb 0.00 in0.0 mm 0.00 in0.0 mm 0.00 in0.0 mm
02:00 AM 63.9°F17.7°C 62.1°F16.7°C 94% 10.0 mph SSE16.1 kmh SSE 15.0 mph24.1 kmh 29.99 in1015.6 mb 0.00 in0.0 mm 0.00 in0.0 mm 0.00 in0.0 mm
01:57 AM 63.9°F17.7°C 62.1°F16.7°C 94% 10.0 mph SSE16.1 kmh SSE 15.0 mph24.1 kmh 29.99 in1015.6 mb 0.00 in0.0 mm 0.00 in0.0 mm 0.00 in0.0 mm
01:54 AM 63.9°F17.7°C 62.1°F16.7°C 94% 10.0 mph SSE16.1 kmh SSE 16.0 mph25.7 kmh 29.99 in1015.6 mb 0.00 in0.0 mm 0.00 in0.0 mm 0.00 in0.0 mm
01:51 AM 63.9°F17.7°C 62.1°F16.7°C 94% 12.0 mph S19.3 kmh S 18.0 mph29.0 kmh 29.99 in1015.6 mb 0.00 in0.0 mm 0.00 in0.0 mm 0.00 in0.0 mm
01:48 AM 63.9°F17.7°C 62.1°F16.7°C 94% 12.0 mph S19.3 kmh S 18.0 mph29.0 kmh 29.99 in1015.6 mb 0.00 in0.0 mm 0.00 in0.0 mm 0.00 in0.0 mm
01:45 AM 63.9°F17.7°C 62.1°F16.7°C 94% 12.0 mph S19.3 kmh S 18.0 mph29.0 kmh 29.99 in1015.6 mb 0.00 in0.0 mm 0.00 in0.0 mm 0.00 in0.0 mm
01:42 AM 63.9°F17.7°C 62.1°F16.7°C 94% 12.0 mph S19.3 kmh S 18.0 mph29.0 kmh 29.99 in1015.6 mb 0.00 in0.0 mm 0.00 in0.0 mm 0.00 in0.0 mm
01:39 AM 63.9°F17.7°C 62.1°F16.7°C 94% 12.0 mph S19.3 kmh S 18.0 mph29.0 kmh 29.99 in1015.6 mb 0.00 in0.0 mm 0.00 in0.0 mm 0.00 in0.0 mm
01:36 AM 63.9°F17.7°C 62.1°F16.7°C 94% 12.0 mph S19.3 kmh S 16.0 mph25.7 kmh 29.99 in1015.6 mb 0.00 in0.0 mm 0.00 in0.0 mm 0.00 in0.0 mm
01:33 AM 63.9°F17.7°C 62.1°F16.7°C 94% 12.0 mph S19.3 kmh S 16.0 mph25.7 kmh 29.99 in1015.6 mb 0.00 in0.0 mm 0.00 in0.0 mm 0.00 in0.0 mm
01:30 AM 63.9°F17.7°C 62.1°F16.7°C 94% 11.0 mph S17.7 kmh S 15.0 mph24.1 kmh 29.99 in1015.6 mb 0.00 in0.0 mm 0.00 in0.0 mm 0.00 in0.0 mm
01:27 AM 63.9°F17.7°C 62.1°F16.7°C 94% 11.0 mph S17.7 kmh S 15.0 mph24.1 kmh 29.99 in1015.6 mb 0.00 in0.0 mm 0.00 in0.0 mm 0.00 in0.0 mm
01:24 AM 63.9°F17.7°C 62.1°F16.7°C 94% 12.0 mph S19.3 kmh S 15.0 mph24.1 kmh 29.99 in1015.6 mb 0.00 in0.0 mm 0.00 in0.0 mm 0.00 in0.0 mm
01:21 AM 63.9°F17.7°C 62.1°F16.7°C 94% 12.0 mph S19.3 kmh S 18.0 mph29.0 kmh 29.99 in1015.6 mb 0.00 in0.0 mm 0.00 in0.0 mm 0.00 in0.0 mm
01:18 AM 63.9°F17.7°C 62.1°F16.7°C 94% 12.0 mph S19.3 kmh S 18.0 mph29.0 kmh 29.99 in1015.6 mb 0.00 in0.0 mm 0.00 in0.0 mm 0.00 in0.0 mm
01:15 AM 63.9°F17.7°C 62.1°F16.7°C 94% 12.0 mph S19.3 kmh S 18.0 mph29.0 kmh 29.99 in1015.6 mb 0.00 in0.0 mm 0.00 in0.0 mm 0.00 in0.0 mm
01:12 AM 63.9°F17.7°C 62.1°F16.7°C 94% 13.0 mph S20.9 kmh S 18.0 mph29.0 kmh 29.99 in1015.6 mb 0.00 in0.0 mm 0.00 in0.0 mm 0.00 in0.0 mm
01:09 AM 63.9°F17.7°C 62.1°F16.7°C 94% 13.0 mph S20.9 kmh S 18.0 mph29.0 kmh 29.99 in1015.6 mb 0.00 in0.0 mm 0.00 in0.0 mm 0.00 in0.0 mm
01:06 AM 63.9°F17.7°C 62.1°F16.7°C 94% 14.0 mph S22.5 kmh S 20.0 mph32.2 kmh 29.99 in1015.6 mb 0.00 in0.0 mm 0.00 in0.0 mm 0.00 in0.0 mm
01:03 AM 63.9°F17.7°C 62.1°F16.7°C 94% 14.0 mph S22.5 kmh S 20.0 mph32.2 kmh 30.00 in1015.9 mb 0.00 in0.0 mm 0.00 in0.0 mm 0.00 in0.0 mm
01:00 AM 63.9°F17.7°C 62.1°F16.7°C 94% 14.0 mph S22.5 kmh S 20.0 mph32.2 kmh 29.99 in1015.6 mb 0.00 in0.0 mm 0.00 in0.0 mm 0.00 in0.0 mm
12:57 AM 63.9°F17.7°C 62.1°F16.7°C 94% 13.0 mph S20.9 kmh S 20.0 mph32.2 kmh 29.99 in1015.6 mb 0.00 in0.0 mm 0.00 in0.0 mm 0.00 in0.0 mm
12:54 AM 63.9°F17.7°C 62.1°F16.7°C 94% 13.0 mph S20.9 kmh S 19.0 mph30.6 kmh 30.00 in1015.9 mb 0.00 in0.0 mm 0.00 in0.0 mm 0.00 in0.0 mm
12:51 AM 63.9°F17.7°C 62.1°F16.7°C 94% 12.0 mph S19.3 kmh S 19.0 mph30.6 kmh 30.00 in1015.9 mb 0.00 in0.0 mm 0.00 in0.0 mm 0.00 in0.0 mm
12:48 AM 63.9°F17.7°C 62.1°F16.7°C 94% 13.0 mph S20.9 kmh S 19.0 mph30.6 kmh 30.00 in1015.9 mb 0.00 in0.0 mm 0.00 in0.0 mm 0.00 in0.0 mm
12:45 AM 63.9°F17.7°C 62.1°F16.7°C 94% 13.0 mph S20.9 kmh S 19.0 mph30.6 kmh 30.00 in1015.9 mb 0.00 in0.0 mm 0.00 in0.0 mm 0.00 in0.0 mm
12:42 AM 63.9°F17.7°C 62.1°F16.7°C 94% 13.0 mph S20.9 kmh S 19.0 mph30.6 kmh 30.00 in1015.9 mb 0.00 in0.0 mm 0.00 in0.0 mm 0.00 in0.0 mm
12:39 AM 63.9°F17.7°C 62.1°F16.7°C 94% 13.0 mph S20.9 kmh S 19.0 mph30.6 kmh 30.00 in1015.9 mb 0.00 in0.0 mm 0.00 in0.0 mm 0.00 in0.0 mm
12:36 AM 63.9°F17.7°C 62.1°F16.7°C 94% 13.0 mph S20.9 kmh S 19.0 mph30.6 kmh 30.00 in1015.9 mb 0.00 in0.0 mm 0.00 in0.0 mm 0.00 in0.0 mm
12:33 AM 63.9°F17.7°C 62.1°F16.7°C 94% 13.0 mph S20.9 kmh S 17.0 mph27.4 kmh 30.00 in1015.9 mb 0.00 in0.0 mm 0.00 in0.0 mm 0.00 in0.0 mm
12:30 AM 63.9°F17.7°C 62.1°F16.7°C 94% 12.0 mph S19.3 kmh S 17.0 mph27.4 kmh 30.00 in1015.9 mb 0.00 in0.0 mm 0.00 in0.0 mm 0.00 in0.0 mm
12:27 AM 63.9°F17.7°C 62.1°F16.7°C 94% 12.0 mph S19.3 kmh S 17.0 mph27.4 kmh 30.00 in1015.9 mb 0.00 in0.0 mm 0.00 in0.0 mm 0.00 in0.0 mm
12:24 AM 63.9°F17.7°C 62.1°F16.7°C 94% 12.0 mph S19.3 kmh S 15.0 mph24.1 kmh 30.00 in1015.9 mb 0.00 in0.0 mm 0.00 in0.0 mm 0.00 in0.0 mm
12:21 AM 63.9°F17.7°C 62.1°F16.7°C 94% 12.0 mph S19.3 kmh S 15.0 mph24.1 kmh 30.01 in1016.3 mb 0.00 in0.0 mm 0.00 in0.0 mm 0.00 in0.0 mm
12:18 AM 63.9°F17.7°C 62.1°F16.7°C 94% 11.0 mph S17.7 kmh S 15.0 mph24.1 kmh 30.00 in1015.9 mb 0.00 in0.0 mm 0.00 in0.0 mm 0.00 in0.0 mm
12:15 AM 63.9°F17.7°C 62.1°F16.7°C 94% 11.0 mph S17.7 kmh S 15.0 mph24.1 kmh 30.00 in1015.9 mb 0.00 in0.0 mm 0.00 in0.0 mm 0.00 in0.0 mm
12:12 AM 63.9°F17.7°C 62.1°F16.7°C 94% 10.0 mph S16.1 kmh S 18.0 mph29.0 kmh 30.00 in1015.9 mb 0.00 in0.0 mm 0.00 in0.0 mm 0.00 in0.0 mm
12:09 AM 63.9°F17.7°C 62.1°F16.7°C 94% 11.0 mph S17.7 kmh S 18.0 mph29.0 kmh 30.01 in1016.3 mb 0.00 in0.0 mm 0.00 in0.0 mm 0.00 in0.0 mm
12:06 AM 63.9°F17.7°C 62.1°F16.7°C 94% 12.0 mph S19.3 kmh S 18.0 mph29.0 kmh 30.00 in1015.9 mb 0.00 in0.0 mm 0.00 in0.0 mm 0.00 in0.0 mm
12:03 AM 63.9°F17.7°C 62.1°F16.7°C 94% 12.0 mph S19.3 kmh S 18.0 mph29.0 kmh 30.00 in1015.9 mb 0.00 in0.0 mm 0.00 in0.0 mm 0.00 in0.0 mm
12:00 AM 63.9°F17.7°C 62.1°F16.7°C 94% 13.0 mph S20.9 kmh S 18.0 mph29.0 kmh 30.00 in1015.9 mb 0.00 in0.0 mm 0.00 in0.0 mm 0.00 in0.0 mm